Back to catalog

STARLINK-5199

AliveCommunicationsVLEO
NORAD 54201·PAYLOAD·🇺🇸 United States

Launched Oct 28, 2022 from Vandenberg Space Force Base

Loading…

Next Passes (next 24 hours)

TLE

FreshSource: CelesTrak SupGP

Epoch: Sep 14, 2026, 21:31 UTC

1 54201C 22141AW  26257.89701389  .00010070  00000+0  29747-3 0  2575
2 54201  53.1582 213.7797 0001379  97.0631  92.4652 15.34389199    11

Track STARLINK-5199 in real time with AllMySat

Download on the App Store